Find Starlink 37169

NORAD ID: 68346 Int'l Des: 2026-059 Owner: SPXS Country: US Constellation: starlink operational
LEOCIRCULAR

Live-Position

3D-Globus wird geladen...

Über Starlink 37169

Beschreibung wird geladen...

Nächste Überflüge

Passes for default location (London). Set your location on the main map for personalized predictions.

Höhenverlauf

Loading altitude history...

Zweizeiliger Elementsatz

1 68346U 26059AB 26127.21581486 .00024250 00000-0 44217-3 0 9996
2 68346 53.1591 74.4672 0001110 90.1570 269.9566 15.49344187 7161
Epoch: 7. Mai 2026 • Age: 10 hours

Aktueller Status

Höhe 419.0 km
Geschwindigkeit 7.66 km/s
Subsatellitenpunkt 22.96°N, 141.86°E
Startdatum 22. März 2026
Alter 0.1 years
Typ internet

Technische Details

Klassifizierung Payload
Masse 575.00 kg
Trockenmasse 530.00 kg
Gesamtmasse 575.00 kg
Länge 0.30 m
Durchmesser 4.10 m
Spannweite 29.00 m
Form Box + pan
Hersteller SPXS
Bus-Typ Starlink V2MO
Phasenstatus In Orbit
Besitzer/Staat SPXS/US

Most Searched